Regional Weather Roundup
Issued by NWS Portland, ME

Current Version | Previous Version | Text Only | Print | Product List | Glossary Off
Versions: 1 2 3 4 5 6 7 8 9 10 11 12 13 14 15 16 17 18 19 20 21 22 23 24 25 26 27 28 29 30 31 32 33 34 35 36 37 38 39 40 41 42 43 44 45 46 47 48 49 50
000 ASUS41 KGYX 211010 RWRGYX WEATHER ROUNDUP FOR MAINE AND NEW HAMPSHIRE NATIONAL WEATHER SERVICE GRAY ME 600 AM EDT SUN OCT 21 2018 MEZ002-005-006-010-012-015-018-020-021-024-026-027-029-211100- MAINE CITY SKY/WX TMP DP RH WIND PRES REMARKS PORTLAND CLOUDY 44 31 60 VRB3 29.62R SANFORD CLOUDY 40 37 89 CALM 29.63R BAR HARBOR CLOUDY 36 33 89 CALM 29.62R WISCASSET MOCLDY 41 32 70 CALM 29.63R ROCKLAND MOCLDY 44 32 62 VRB5 29.62R FRYEBURG FAIR 32 31 96 CALM 29.62R LEWISTONAUBURN FAIR 38 30 73 N6 29.63R AUGUSTA FAIR 39 29 67 NW9 29.63R WATERVILLE FAIR 35 27 72 NW5 29.61R BANGOR FAIR 32 28 85 CALM 29.63R GREENVILLE N/A 32 26 78 NW17G28 29.55S MILLINOCKET FAIR 36 26 67 W8 29.61R HOULTON FAIR 32 28 85 W6 29.57R PRESQUE ISLE FAIR 32 27 81 W5 29.57R FRENCHVILLE FAIR 32 26 78 W12 29.52R CARIBOU FAIR 31 26 82 W7 29.54R $$ NHZ002-005-008-009-011-012-014-211100- NEW HAMPSHIRE CITY SKY/WX TMP DP RH WIND PRES REMARKS PORTSMOUTH CLOUDY 46 34 64 N8 29.61R ROCHESTER CLOUDY 43 37 79 CALM 29.62R NASHUA CLOUDY 47 31 53 NW10 29.65R MANCHESTER LGT RAIN 47 30 51 NW10 29.63R CONCORD CLOUDY 44 29 55 N15G24 29.65R LACONIA CLOUDY 43 30 60 W6 29.65R PLYMOUTH FAIR 41 29 62 NW9 29.66R BERLIN CLOUDY 38 27 64 NW9 29.65R WHITEFIELD CLOUDY 33 30 88 W5 29.68R JAFFREY CLOUDY 44 30 57 VRB7 29.65R KEENE CLOUDY 44 31 60 N10 29.67R LEBANON FAIR 42 27 55 N12G20 29.69R MT WASHINGTON FOG 16 16 100 NW53G59 N/A VSB 1/16WCI -9 $$ VTZ005-007-008-211100- VERMONT CITY SKY/WX TMP DP RH WIND PRES REMARKS ST JOHNSBURY N/A 38 29 70 MISG 29.69R MONTPELIER CLOUDY 34 27 75 NW14G21 29.75R BURLINGTON CLOUDY 39 26 59 NW18G25 29.79R $$ MAZ007-012-024-CTZ003-RIZ002-NYZ038-NYZ072-211100- SOUTHERN NEW ENGLAND AND NY CITY SKY/WX TMP DP RH WIND PRES REMARKS BOSTON CLOUDY 50 36 58 NW9 29.62R WORCESTER LGT RAIN 42 36 79 NW10 29.63R NANTUCKET CLOUDY 50 46 86 N7 29.55R PROVIDENCE LGT RAIN 48 42 80 N12 29.62R HARTFORD CLOUDY 46 40 79 N6 29.66R ALBANY CLOUDY 43 29 57 NW14 29.76R NEW YORK CITY CLOUDY 50 40 68 NW16 29.70R $$ ANZ081-ANZ082-ANZ150-NHZ014-MEZ023>029-211100- COASTAL MARINE OBSERVATIONS STATION/POSITION TIME TEMP WIND PRES WAVE AIR SEA DIR/SP/G HT/PER (UTC) (F) (DEG/KT/KT) (MB) (FT/S) MOUNT DESERT ROC 1000 49 340/ 20/ 21 1002.2R MATINICUS ROCK 0900 50 10/ 15/ 18 1001.3R ISLE OF SHOALS 0900 49 10/ 17/ 19 1001.5R JEFFREYS LEDGE 0906 55 N/A 4/ 9 $$ .............KEY.............. WCI - WIND CHILL TC - TEMPERATURE IN CELSIUS VSB - VISIBILITY IN MILES HX - HEAT INDEX FAIR- INDICATES FEW OR NO CLOUDS BELOW 12,000 FT, WITH NO SIGNIFICANT WEATHER AND/OR OBSTRUCTIONS TO VISIBILITY.

USA.gov is the U.S. government's official web portal to all federal, state and local government web resources and services.